Location: Mentone
(34.5413°N, 85.5351°W)
Time: 17:24:17
(UTC-05:00)

S-56A Canister/Altair - Visible Passes

Search period start: 29 March 2015 00:00
Search period end: 08 April 2015 00:00
Orbit: 634 x 2501 km, 38.9° (Epoch: 25 March)

Date Brightness Start Highest point End Pass type
(mag) Time Alt. Az. Time Alt. Az. Time Alt. Az.
29 Mar 10.1 18:57:30 10° WSW 19:11:36 81° SSE 19:26:33 10° ENE visible
29 Mar 10.0 21:04:06 10° W 21:19:22 75° N 21:27:35 32° ENE visible
29 Mar 9.8 23:12:04 10° WNW 23:25:02 70° NW 23:25:02 70° NW visible
30 Mar 11.2 01:20:03 10° WNW 01:22:29 17° WNW 01:22:29 17° WNW visible
30 Mar 10.1 20:30:58 10° W 20:46:01 77° N 20:56:55 21° ENE visible
30 Mar 9.6 22:38:42 10° WNW 22:54:02 81° NNE 22:54:21 80° NNE visible
31 Mar 10.9 00:46:36 10° WNW 00:51:48 26° WNW 00:51:48 26° WNW visible
31 Mar 10.1 19:57:55 10° W 20:12:40 78° N 20:26:12 13° ENE visible
31 Mar 9.7 22:05:24 10° WNW 22:20:49 79° N 22:23:39 64° ENE visible
01 Apr 10.5 00:13:11 10° WNW 00:21:05 37° W 00:21:05 37° W visible
01 Apr 10.2 19:25:00 10° W 19:39:18 80° NNW 19:54:15 10° ENE visible
01 Apr 9.9 21:32:11 10° WNW 21:47:32 77° N 21:52:54 47° E visible
01 Apr 10.1 23:39:48 10° WNW 23:50:21 51° W 23:50:21 51° W visible
02 Apr 10.0 20:59:01 10° W 21:14:11 76° N 21:22:10 34° E visible
02 Apr 9.8 23:06:28 10° WNW 23:19:36 69° W 23:19:36 69° W visible
03 Apr 11.3 01:14:54 10° WNW 01:17:02 15° W 01:17:02 15° W visible
03 Apr 10.1 20:25:58 10° W 20:40:49 75° N 20:51:25 23° E visible
03 Apr 9.6 22:33:12 10° WNW 22:48:33 83° SSW 22:48:51 82° S visible
04 Apr 11.0 00:41:16 10° WNW 00:46:17 23° W 00:46:17 23° W visible
04 Apr 10.1 19:52:59 10° W 20:07:26 75° N 20:20:40 15° E visible
04 Apr 9.6 22:00:00 10° WNW 22:15:23 87° SSW 22:18:06 67° ESE visible
05 Apr 10.7 00:07:43 10° WNW 00:15:32 32° W 00:15:32 32° W visible
05 Apr 10.2 19:20:06 10° W 19:34:04 74° N 19:49:09 10° E visible
05 Apr 9.8 21:26:53 10° WNW 21:42:08 89° NNE 21:47:22 50° ESE visible
05 Apr 10.3 23:34:17 10° WNW 23:44:48 43° WSW 23:44:48 43° WSW visible
06 Apr 9.9 20:53:49 10° WNW 21:08:51 86° NNE 21:16:39 36° ESE visible
06 Apr 10.0 23:00:56 10° WNW 23:14:05 54° SW 23:14:05 54° SW visible
07 Apr 11.5 01:11:29 10° W 01:11:32 10° W 01:11:32 10° W visible
07 Apr 10.0 20:20:52 10° WNW 20:35:31 83° NNE 20:45:57 25° ESE visible
07 Apr 9.9 22:27:41 10° WNW 22:42:33 61° SW 22:43:24 60° SSW visible
